Vorticity
nan nan nan nan nan nan nan nan nan nan nan nan nan nan nan nan nan nan nan nan nan nan nan nan nan nan nan nan nan nan nan nan nan nan nan nan nan nan nan nan nan nan nan nan
nan 18 11 11 16 14 15 15 10 11 11 20 19 9 6 6 7 9 11 7 7 9 9 10 10 10 10 10 9 10 10 10 10 11 11 10 9 10 10 10 11 11 10 nan
nan 13 16 24 24 22 12 13 15 11 13 13 6 6 7 8 11 11 8 7 9 10 10 10 9 10 10 10 9 10 11 10 11 11 10 10 10 9 11 11 12 12 10 nan
nan 10 7 13 16 14 16 12 10 7 6 7 9 9 10 17 12 7 6 10 11 10 9 9 10 11 10 10 10 11 10 10 10 10 10 10 10 11 12 11 12 11 11 nan
nan 4 7 17 13 13 13 7 17 15 14 12 9 6 15 15 5 5 9 11 10 8 9 10 10 10 10 10 10 10 10 10 10 10 11 10 10 11 12 11 11 11 10 nan
nan 7 12 21 13 9 8 12 16 16 13 5 6 10 10 1 5 9 10 10 9 10 11 10 10 10 10 11 11 10 9 10 10 11 11 11 11 12 12 11 11 10 10 nan
nan 6 10 18 12 3 6 17 12 9 8 7 7 7 5 7 9 9 9 9 10 11 11 9 10 11 11 11 10 10 10 10 10 10 12 13 12 12 11 11 12 10 12 nan
nan 9 20 9 6 7 10 12 10 8 8 9 9 8 8 9 9 9 9 10 11 12 10 9 11 11 10 11 11 10 10 10 10 11 13 11 11 12 12 12 13 12 13 nan
nan 5 20 2 -2 13 10 13 13 11 10 9 9 8 9 10 10 10 10 11 11 10 10 10 10 10 10 11 10 11 10 10 10 12 12 11 13 13 14 13 13 12 12 nan
nan 11 7 8 7 9 12 14 11 10 9 9 8 9 10 10 9 10 10 10 10 9 11 10 10 10 11 11 11 11 10 11 12 12 12 14 14 13 11 10 10 10 10 nan
nan 14 16 14 13 12 10 9 8 7 8 9 10 9 9 9 10 10 10 10 10 11 9 10 10 10 11 11 12 11 11 12 13 13 13 13 12 11 9 7 5 5 5 nan
nan 18 20 19 17 12 9 7 7 9 10 9 8 8 9 10 10 9 10 11 10 9 10 11 11 11 11 11 11 10 12 12 12 11 13 12 11 10 8 7 6 7 11 nan
nan 11 17 12 8 11 11 9 8 9 9 8 9 9 10 10 8 9 11 9 10 10 11 12 11 11 11 11 9 10 11 9 11 12 12 11 11 9 12 13 14 17 16 nan
nan 9 10 12 9 11 9 8 9 9 8 9 9 9 10 10 9 11 10 10 10 10 12 12 12 11 10 9 10 12 9 13 18 13 12 10 11 12 12 10 13 13 12 nan
nan 9 16 16 11 9 8 8 7 7 9 10 10 10 9 10 10 10 11 11 12 12 11 11 11 10 9 10 12 13 14 13 11 12 10 12 13 13 11 11 12 11 14 nan
nan 11 10 8 7 8 8 8 8 8 9 10 9 10 10 11 10 11 11 12 12 11 11 11 10 8 10 12 12 15 9 8 15 17 12 14 12 12 12 11 11 12 14 nan
nan 10 10 10 10 8 8 8 9 9 10 9 9 10 10 11 11 11 11 11 12 12 11 10 9 12 11 11 15 17 13 11 15 18 12 12 12 12 11 11 11 12 15 nan
nan 14 16 15 12 10 9 7 9 10 9 10 10 11 10 11 11 9 11 12 12 12 10 8 8 11 12 13 16 15 14 12 14 12 12 11 12 12 12 12 12 13 17 nan
nan 11 11 11 11 11 9 10 10 10 10 11 10 12 12 10 10 11 11 11 12 12 9 4 9 15 14 9 17 21 12 11 13 13 10 13 15 13 13 11 13 17 16 nan
nan 9 10 9 10 10 10 9 10 11 10 10 11 10 11 11 11 12 12 14 13 8 7 10 14 14 12 8 19 20 11 12 13 13 13 14 13 13 12 13 18 18 13 nan
nan 9 10 10 9 9 10 9 10 9 11 12 10 11 11 11 11 11 12 11 8 5 9 16 17 13 9 12 18 14 12 12 13 13 13 13 13 14 14 18 18 15 13 nan
nan 10 9 10 10 9 8 10 10 10 11 11 10 10 11 11 12 13 14 11 2 8 21 15 3 5 8 18 21 11 12 13 14 14 12 13 14 13 14 16 15 15 14 nan
nan 11 11 10 9 9 11 12 10 11 11 10 9 11 12 13 11 12 10 9 7 13 15 4 0 7 21 23 12 11 12 13 13 13 13 13 13 14 14 14 15 15 14 nan
nan 11 10 10 10 10 11 11 10 14 12 11 13 10 8 11 14 11 6 5 7 17 15 6 4 9 22 20 11 11 12 12 13 13 9 13 19 14 15 15 15 15 13 nan
nan 11 12 11 10 11 11 9 13 13 10 13 14 13 11 12 11 9 11 7 10 17 10 3 7 21 21 11 11 11 12 11 12 13 14 13 14 14 14 16 16 14 13 nan
nan 9 10 10 11 11 11 10 12 12 11 12 12 12 12 12 11 12 10 12 12 12 15 12 11 12 12 11 11 11 11 10 12 11 13 15 13 14 14 15 15 15 14 nan
nan nan nan nan nan nan nan nan nan nan nan nan nan nan nan nan nan nan nan nan nan nan nan nan nan nan nan nan nan nan nan nan nan nan nan nan nan nan nan nan nan nan nan nan
CAPE
0 0 0 0 0 0 0 0 1 0 0 0 0 0 0 0 0 0 0 0 0 0 0 0 0 0 0 0 0 0 0 0 2 5 5 9 10 5 6 9 3 6 11 12
0 0 0 0 0 0 0 0 0 0 0 0 0 0 0 0 0 0 0 0 0 0 0 0 0 0 0 0 0 0 0 1 4 5 6 12 7 4 4 5 3 10 11 11
0 0 0 0 0 0 0 0 0 0 0 0 0 0 0 0 0 0 0 0 0 0 0 0 0 0 0 0 0 0 1 1 3 5 6 9 11 6 3 8 2 9 9 4
0 0 0 0 0 0 0 0 0 0 0 0 0 0 0 0 0 0 0 0 0 0 0 0 0 0 0 0 0 1 1 2 3 6 7 9 9 7 10 11 9 8 6 6
1 0 0 0 0 0 0 0 0 0 0 0 0 0 0 0 0 0 0 0 0 0 0 0 0 0 0 0 0 0 0 1 3 7 11 12 12 11 10 11 9 10 4 1
2 0 0 0 0 0 0 0 0 0 0 0 0 0 0 0 0 0 0 0 0 0 0 0 0 0 0 0 0 0 1 1 3 7 9 12 10 12 11 10 8 10 5 5
2 6 0 0 0 0 0 0 0 0 0 0 0 0 0 0 0 0 0 0 0 0 0 0 0 0 0 0 0 0 0 1 4 7 8 9 8 10 10 10 13 10 8 7
1 6 0 0 0 0 0 0 0 0 0 0 0 0 0 0 0 0 0 0 0 0 0 0 0 0 0 0 0 0 1 2 4 5 9 10 10 10 10 9 12 12 9 6
0 0 0 0 0 0 0 0 0 0 0 0 0 0 0 0 0 0 0 0 0 0 0 0 0 0 0 0 0 1 1 2 3 7 9 5 13 13 13 11 10 9 9 10
0 0 0 0 0 0 0 0 0 0 0 0 0 0 0 0 0 0 0 0 0 0 0 0 0 0 0 0 0 2 5 5 8 13 11 8 9 11 15 13 10 11 10 9
0 0 0 0 0 0 0 0 0 0 0 0 0 0 0 0 0 0 0 0 0 0 0 0 0 0 0 0 1 5 6 11 12 16 10 14 12 10 13 10 10 11 15 8
0 0 0 0 0 0 0 0 0 0 0 0 0 0 0 0 0 0 0 0 0 0 0 0 0 0 0 0 4 8 11 13 11 14 14 12 9 4 6 8 13 8 8 28
0 0 0 0 0 0 0 0 0 0 0 0 0 0 0 0 0 0 0 0 0 0 0 0 0 0 0 2 6 7 12 10 18 16 13 7 5 14 8 1 2 1 6 34
0 0 0 0 0 0 0 0 0 0 0 0 0 0 0 0 0 0 0 0 0 0 0 0 0 0 1 3 3 5 11 16 10 12 8 12 12 9 10 6 4 1 0 22
0 0 0 0 0 0 0 0 0 0 0 0 0 0 0 0 0 0 0 0 0 0 0 0 1 1 0 1 5 12 11 11 12 17 16 11 10 7 7 6 6 5 4 4
0 0 0 0 0 0 0 0 0 0 0 0 0 0 0 0 0 0 0 0 0 0 0 1 2 0 0 2 10 5 8 21 18 13 11 7 8 7 6 5 5 4 3 1
0 0 0 0 0 0 0 0 0 0 0 0 0 0 0 0 0 0 0 0 0 0 0 2 1 0 7 1 4 5 21 10 12 8 8 8 6 6 5 5 3 3 3 0
0 0 0 0 0 0 0 0 0 0 0 0 0 0 0 0 0 0 0 0 0 0 0 0 0 11 0 1 11 16 11 9 10 8 8 6 6 6 5 4 3 1 0 0
0 0 0 0 0 0 0 0 0 0 0 0 0 0 0 0 0 0 0 0 0 0 0 0 15 0 0 13 22 8 9 7 6 5 7 7 4 4 4 3 2 2 1 3
0 0 0 0 0 0 0 0 0 0 0 0 0 0 0 0 0 0 0 0 0 1 2 4 2 0 2 14 17 7 7 5 5 4 3 6 4 3 2 2 2 2 7 3
0 0 0 0 0 0 0 0 0 0 0 0 0 0 0 0 0 0 0 0 0 0 5 4 0 0 20 12 4 6 5 4 3 1 5 4 2 2 2 2 7 5 4 2
0 0 0 0 0 0 0 0 0 0 0 0 0 0 0 0 0 0 0 0 4 8 11 2 0 24 15 4 3 3 2 3 1 3 3 3 2 2 1 7 6 5 3 2
0 0 0 0 0 0 0 0 0 0 0 0 0 0 0 0 0 1 1 0 6 4 6 4 12 21 18 0 1 1 1 1 1 2 2 2 2 1 1 5 4 4 2 1
0 0 0 0 0 0 0 0 0 0 0 0 0 0 0 0 0 0 3 2 6 9 5 5 11 17 6 1 0 0 0 0 0 0 1 7 1 0 0 3 2 2 1 1
0 0 0 0 0 0 0 0 0 0 0 0 0 0 0 0 0 0 1 0 2 1 0 1 5 8 0 1 0 0 0 0 0 0 0 0 0 0 0 0 3 1 1 0
0 0 0 0 0 0 0 0 0 0 1 0 0 0 0 1 0 1 0 0 0 0 0 0 0 0 0 0 0 0 0 0 0 0 0 0 0 0 0 0 0 0 0 0
0 0 0 0 0 0 0 0 1 0 0 1 0 0 0 0 0 0 0 0 0 0 0 0 0 0 0 0 0 0 0 0 0 0 0 0 0 0 0 0 0 0 0 0